Simultaneous Nadir Overpasses (SNOs) Predictions

Prediction of SNOs between GOES-17 and METOP-C Satellite Orbit:

Table of predicted SNOs for the next 14.0 days since TLE Epoch: 7/6/2024
Index Date Time (GOES-17) GOES-17 Lat,Lon METOP-C Lat,Lon Distance(km) Time Diff (sec)
1 07/08/2024 04:31:24 0.01,-104.69 -0.04,-104.92 25.97 80
2 07/10/2024 16:26:57 -0.02,-104.72 -0.06,-104.48 26.24 80
3 07/12/2024 04:48:38 0.02,-104.70 -0.95,-109.08 499.18 80
4 07/13/2024 04:25:19 0.03,-104.70 0.15,-104.08 70.27 80
5 07/14/2024 16:46:51 -0.02,-104.73 0.84,-108.65 446.43 80
6 07/15/2024 16:23:32 -0.03,-104.73 -0.26,-103.65 122.95 80
7 07/17/2024 04:45:12 0.02,-104.71 -0.78,-108.24 402.45 80
8 07/18/2024 04:21:52 0.03,-104.71 0.33,-103.24 166.69 80
9 07/19/2024 16:43:25 -0.02,-104.72 0.66,-107.80 350.80 80
